Satcom 4

operational
NORAD ID: 13035 Int'l Des: 1982-004 Owner: AMC Country: US
HEOCIRCULAR

Über Satcom 4

Beschreibung wird geladen...

Live-Position

3D-Globus wird geladen...

Nächste Überflüge

Höhenverlauf

Altitude vs Time

uPlot chart will show altitude changes over time

Zweizeiliger Elementsatz

1 13035U 82004A 26062.07637141 -.00000327 00000-0 00000-0 0 9994
2 13035 12.8913 336.3173 0044475 201.8420 157.9866 0.99597543124151
Epoch: 3. März 2026 • Age: 40 hours

Aktueller Status

Höhe 35794.4 km
Geschwindigkeit 3.08 km/s
Subsatellitenpunkt -7.57°S, 143.35°E
Startdatum 16. Jan. 1982
Alter 44.1 years
Typ other

Technische Details

Klassifizierung Payload
Masse 577.00 kg
Trockenmasse 554.00 kg
Gesamtmasse 1082.00 kg
Länge 1.30 m
Durchmesser 1.30 m
Spannweite 11.30 m
Form Box + 2 Pan
Hersteller RCA
Bus-Typ Satcom
Phasenstatus In Orbit
Besitzer/Staat AMC/US

Große Konstellationen

Loading constellations...